Regional Weather Roundup
Issued by NWS

Home | Current Version | Previous Version | Text Only | Print | Product List | Glossary On
Versions: 1 2 3 4 5 6 7 8 9 10 11 12 13 14 15 16 17 18 19 20 21 22 23 24 25 26 27 28 29 30 31 32 33 34 35 36 37 38 39 40 41 42 43 44 45 46 47 48 49 50
000
ASUS43 KMPX 290201
RWRMN
WEATHER ROUNDUP FOR MINNESOTA
NATIONAL WEATHER SERVICE TWIN CITIES/CHANHASSEN MN
900 PM CDT THU APR 28 2016


NOTE: "FAIR" INDICATES FEW OR NO CLOUDS BELOW 12,000 FEET WITH NO
SIGNIFICANT WEATHER AND/OR OBSTRUCTIONS TO VISIBILITY. N/A MEANS
CURRENT SKY AND/OR WEATHER CONDITIONS ARE NOT AVAILABLE.

MNZ060>063-068>070-290300-
   Twin Cities Metro

CITY           SKY/WX    TMP DP  RH WIND       PRES   REMARKS
TWIN CITIES    LGT RAIN  40  37  89 VRB5      30.11R
ST PAUL        LGT RAIN  41  38  89 E6        30.12R
CRYSTAL        LGT RAIN  42  39  89 CALM      30.10R
BLAINE         LGT RAIN  43  43 100 CALM      30.10R
EDEN PRAIRIE   LGT RAIN  40  36  86 NE6       30.10R
SOUTH ST PAUL  RAIN      40  39  96 E3        30.11R
LAKE ELMO      RAIN      41  37  87 E3        30.11R
$$
MNZ001>005-007-008-013>017-022>024-027-028-290300-
   Northwest Minnesota

CITY           SKY/WX    TMP DP  RH WIND       PRES   REMARKS
BEMIDJI        CLEAR     47  28  47 NE6       30.11R
HALLOCK        PTCLDY    48  23  37 E6        30.16R
ROSEAU         PTCLDY    46  32  57 E5        30.16S
WARROAD        PTCLDY    45  28  53 N5        30.17R
THIEF RVR FALL CLEAR     48  21  34 N12       30.15R
CROOKSTON      CLEAR     48  28  46 NE7       30.14R
FOSSTON        CLEAR     46  27  46 NE6       30.12S
DETROIT LAKES  CLOUDY    52  28  40 NE3       30.10R
MOORHEAD       CLOUDY    52  28  40 NE8       30.10R
PARK RAPIDS    CLOUDY    52  25  35 NE5       30.08R
MAHNOMEN       FAIR      49  29  46 NE12      30.10R
$$
MNZ006-009>011-018-025>026-290300-
   North Central Minnesota

CITY           SKY/WX    TMP DP  RH WIND       PRES   REMARKS
BAUDETTE       CLEAR     47  24  40 N9        30.14R
FLAG ISLAND    PTCLDY    48  27  43 NE6       30.16R
INTL FALLS     CLEAR     47  28  47 N5        30.14R
WASKISH        CLEAR     48  34  57 NE3       30.13R
BIG FORK       CLEAR     43  27  52 CALM      30.12R
LONGVILLE      MOCLDY    48  30  49 CALM      30.09R
GRAND RAPIDS   PTCLDY    46  21  36 SE5       30.12R
CRANE LAKE     CLOUDY    43  30  61 CALM      30.14S
ORR            PTCLDY    45  25  45 CALM      30.10R
COOK           CLOUDY    48  28  46 CALM      30.12R
WALKER         FAIR      49  27  41 NE3       30.09R
$$
MNZ012-019>021-037-290300-
   Northeast Minnesota

CITY           SKY/WX    TMP DP  RH WIND       PRES   REMARKS
DULUTH         PTCLDY    38  25  59 E8        30.12R
ELY            CLOUDY    46  28  49 SE5       30.12R
HIBBING        PTCLDY    41  26  55 SE6       30.11R
EVELETH        CLEAR     43  27  52 CALM      30.13R
DULUTH HARBOR  PTCLDY    39  34  81 NE18      30.14S
TWO HARBORS    PTCLDY    39  28  65 NE5       30.12S
SILVER BAY     CLOUDY    37  25  60 NE3       30.13R
GRAND MARAIS     N/A     34  29  82 CALM      30.16R
G MARAIS ARPRT CLEAR     37  23  56 N6        30.13R
$$
MNZ029>031-032-039>041-046>048-054>057-064-290300-
   West Central Minnesota

CITY           SKY/WX    TMP DP  RH WIND       PRES   REMARKS
FERGUS FALLS   CLOUDY    45  39  81 S6        30.09R
WHEATON        CLOUDY    45  39  81 S3        30.13R
MORRIS         CLOUDY    45  39  81 SE7       30.10R
ALEXANDRIA     CLOUDY    42  36  79 S7        30.11R
ELBOW LAKE     CLOUDY    44  38  82 S7        30.11R
WADENA         CLOUDY    46  36  66 S7        30.08R
GLENWOOD       CLOUDY    39  37  93 CALM      30.10S
APPLETON       CLOUDY    45  37  76 SE7       30.11R
BENSON         DRIZZLE   43  37  81 S14       30.11R
ORTONVILLE     CLOUDY    43  37  81 CALM      30.12R
MADISON        CLOUDY    43  39  87 SE5       30.12R
WILLMAR        DRIZZLE   41  37  87 E6        30.13R
$$
MNZ033>034-036-042>043-049>051-058-059-290300-
   Central Minnesota

CITY           SKY/WX    TMP DP  RH WIND       PRES   REMARKS
ST CLOUD       LGT RAIN  41  39  93 SE6       30.10R
SAUK CENTRE    CLOUDY    40  38  92 CALM      30.11R
PAYNESVILLE    LGT RAIN  40  40 100 SE6       30.11S
AITKIN         CLOUDY    46  16  29 E5        30.10R
PINE RIVER     CLOUDY    48  28  46 S3        30.13R
BRAINERD       CLOUDY    46  24  42 SE3       30.10R
STAPLES        CLOUDY    45  36  70 S3        30.10R
LONG PRAIRIE   CLOUDY    41  36  81 S5        30.10R
LITTLE FALLS   CLOUDY    43  36  75 CALM      30.11R
LITCHFIELD     LGT RAIN  39  39 100 CALM      30.12R
BUFFALO        LGT RAIN  39  37  90 CALM      30.12R
MAPLE LAKE     LGT RAIN  41  39  95 E3        30.11S
HUTCHINSON     DRIZZLE   39  37  94 NE6       30.13R
$$
MNZ037-044-045-052-053-290300-
   East Central Minnesota

CITY           SKY/WX    TMP DP  RH WIND       PRES   REMARKS
PRINCETON      LGT RAIN  43  39  87 CALM      30.11R
MORA           CLOUDY    43  27  52 CALM      30.12R
CAMBRIDGE      LGT RAIN  45  36  70 CALM      30.09R
RUSH CITY      CLOUDY    45  32  60 NE3       30.10R
MOOSE LAKE     CLOUDY    39  28  65 NE6       30.10R
HINCKLEY       CLOUDY    45  30  57 NE5       30.10R
CLOQUET        MOCLDY    41  23  48 E9        30.11S
MCGREGOR       CLOUDY    43  27  52 E8        30.12R
$$
MNZ071>073-080-081-089-090-097-098-290300-
   Southwest Minnesota

CITY           SKY/WX    TMP DP  RH WIND       PRES   REMARKS
MONTEVIDEO     CLOUDY    43  39  87 SE9       30.14R
GRANITE FALLS  CLOUDY    43  39  88 NE3       30.14R
CANBY          DRIZZLE   42  41  97 CALM      30.14R
MARSHALL       CLOUDY    40  37  89 E9        30.12R
REDWOOD FALLS  CLOUDY    41  36  82 E7        30.11R
OLIVIA         CLOUDY    39  36  87 NE6       30.11R
PIPESTONE      CLOUDY    37  36  93 N3        30.09R FOG
WINDOM         CLOUDY    39  37  93 CALM      30.08R
WORTHINGTON    CLOUDY    38  36  92 N7        30.09R
JACKSON        CLOUDY    39  36  87 N7        30.08
TRACY          CLOUDY    40  39  95 NE9       30.10R
SLAYTON        CLOUDY    38  38  97 N8        30.08R
$$
MNZ065>067-074>077-082>085-091>093-290300-
   South Central Minnesota

CITY           SKY/WX    TMP DP  RH WIND       PRES   REMARKS
MANKATO        CLOUDY    41  36  81 NE7       30.09R
NEW ULM        CLOUDY    39  37  93 NE9       30.10R
ST JAMES       CLOUDY    36  34  93 NE6       30.10R FOG
FAIRMONT       CLOUDY    39  30  70 NE10      30.06S
GLENCOE        DRIZZLE   38  37  94 NE3       30.12R
FARIBAULT      CLOUDY    39  37  93 N8        30.08R
OWATONNA       CLOUDY    39  37  93 N5        30.08R
WASECA         CLOUDY    39  36  87 NE10      30.09R
$$
MNZ078>079-086>088-094>096-290300-
   Southeast Minnesota

CITY           SKY/WX    TMP DP  RH WIND       PRES   REMARKS
ROCHESTER      CLOUDY    40  39  97 NE8       30.06R FOG
RED WING       LGT RAIN  39  37  93 E9        30.09R
STANTON        LGT RAIN  40  36  86 NE10      30.08R
DODGE CENTER   CLOUDY    37  37 100 NE7       30.06R FOG
WINONA         DRIZZLE   41  37  87 E5        30.08R
AUSTIN         CLOUDY    39  37  93 NE5       30.05R
PRESTON        CLOUDY    39  37  90 E7        30.05R
$$
ABBREVIATIONS USED IN REMARKS
   TC - TEMPERATURES IN CELSIUS
  WCI - WIND CHILL INDEX
   HX - HEAT INDEX
  VSB - VISIBILITY
$$



USA.gov is the U.S. government's official web portal to all federal, state and local government web resources and services.